Overview Statistics Trail Chart Weather Telemetry Raw packets
 

This is the latest recevied weather packets stored in our database for station/object IW2NIA-3. If no packets are shown the sender has not sent any weather packets the latest 10 day(s).

<< 27 28 29 30 31 32 33 >>
Time Temp. Humidity Pressure Rain* Wind** Luminosity Snow
1788012227 30° C 42% 1012.6 hPa 0 mm - - -
1788011337 30° C 48% 1012.7 hPa 0 mm - - -
1788010422 30° C 50% 1012.7 hPa 0 mm - - -
1788009517 29.44° C 46% 1012.9 hPa 0 mm - - -
1788008610 29.44° C 46% 1013.1 hPa 0 mm - - -
1788007707 29.44° C 48% 1013.1 hPa 0 mm - - -
1788006827 29.44° C 50% 1013.1 hPa 0 mm - - -
1788005923 28.89° C 55% 1013.2 hPa 0 mm - - -
1788005023 28.33° C 57% 1013.2 hPa 0 mm - - -
1788004113 28.33° C 61% 1013.4 hPa 0 mm - - -
1788003209 27.78° C 64% 1013.4 hPa 0 mm - - -
1788002322 27.22° C 65% 1013.5 hPa 0 mm - - -
1788001417 27.78° C 65% 1013.6 hPa 0 mm - - -
1788000513 27.22° C 65% 1013.7 hPa 0 mm - - -
1787999609 27.22° C 70% 1013.7 hPa 0 mm - - -
1787998710 26.11° C 69% 1013.8 hPa 0 mm - - -
1787997825 26.11° C 71% 1013.9 hPa 0 mm - - -
1787996914 26.11° C 71% 1013.8 hPa 0 mm - - -
1787996027 25.56° C 72% 1013.7 hPa 0 mm - - -
1787995107 25.56° C 75% 1013.9 hPa 0 mm - - -
1787994226 25° C 75% 1013.9 hPa 0 mm - - -
1787993314 25° C 77% 1013.9 hPa 0 mm - - -
1787992412 24.44° C 77% 1013.7 hPa 0 mm - - -
1787991508 24.44° C 77% 1013.6 hPa 0 mm - - -
1787990624 24.44° C 79% 1013.6 hPa 0 mm - - -

* Rain latest hour (hover to see other rain measurements)
** Current wind speed in m/s (hover to see current wind gust speed)